Capitol Logistics 2854


KORD
Chicago O'Hare International Airport
Chicago, Illinois, US
CYHZ
Robert L. Stanfield International Airport
Halifax, , CA

Activity Log

Date Flight Route Aircraft Duration
06/04/2020 CPX2854 EBAKE PMM J547 FNT Q818 DERLO Q913 CABCI Q29 EBONY FUNDY3 B77L 2h 31m

Route Details

Aircraft Information
Primary: Boeing 747-400BCF
Backup: Boeing 777-200LRF
Route Data
Distance: 1075nm
Sched. Duration: 2h 25m
Avg. Duration: 2h 31m (+6m)
Times Flown: 1
Recm'd Route: EBAKE PMM J547 FNT Q818 DERLO Q913 CABCI Q29 EBONY FUNDY3
Planned Altitude: 37,000ft
Origin Wx: KORD 191651Z 23009KT 10SM OVC075 M03/M08 A3017 RMK AO2 SLP225 T10331083
Dest. Wx: CYHZ 191700Z 29017G25KT 260V320 15SM FEW032 FEW250 M03/M11 A2968 RMK CU1CI2 CU TR SLP060
Notes: OPERATED FOR SKYLEASE CARGO

Financial History
Total Freight: 95,120lbs
Average Load: 95,120lbs/flt
Fuel Used: 34,136lbs
Avg. Fuel Used: 34,136lbs/flt
Fuel Expense: $40,963
Avg. Fuel Expense: $40,963
Avg. Fuel Cost: $1.20/lbs
Total Gross Income: $160,753
Pilot Pay: $229
Total Expenses: $17,413
Total Revenue: $101,847
Average Revenue: $160,752.80